Ketchikan, AK

8:26 AM AKST on November 15, 2018 (GMT -0900)
Ketchikan International

Weather History for PAKT - June, 2018

Change the Weather History Date:

Monday, June 18, 2018

  Actual Average Record
Temperature  
Mean Temperature 70 °F -  
Max Temperature 79 °F 61 °F 82 °F (1950)
Min Temperature 61 °F 47 °F 38 °F (1965)
Cooling Degree Days 4    
Growing Degree Days 20 (Base 50)    
Moisture  
Dew Point 54 °F    
Average Humidity 59    
Maximum Humidity 75    
Minimum Humidity 44    
Precipitation  
Precipitation 0.00 in - - ()
Sea Level Pressure  
Sea Level Pressure 30.08 in    
Wind  
Wind Speed 12 mph (NW)    
Max Wind Speed 20 mph    
Max Gust Speed 23 mph    
Visibility 10 miles    
Events      
Averages and records for this station are not official NWS values.
T = Trace of Precipitation, MM = Missing Value Source: NWS Daily Summary

Daily Weather History Graph

Daily Weather History Graph

Search for Another Location

Airport or City:

Astronomy

Jun. 18, 2018 Rise Set
Actual Time 4:04 AM AKDT 9:31 PM AKDT
Civil Twilight 3:04 AM AKDT 10:31 PM AKDT
Nautical Twilight 1:20 AM AKDT 12:15 AM AKDT
Astronomical Twilight Sun does not rise Sun does not rise
Moon 10:23 AM AKDT (6/18) 12:30 AM AKDT (6/18)
Length of Visible Light 19h 26m
Length of Day
17h 27m
Waxing Crescent, 32% of the Moon is Illuminated
Jun 18
Waxing Crescent
Jun 20
First Quarter
Jun 27
Full
Jul 5
Last Quarter
Jul 12
New

Hourly Weather History & Observations

Time (AKDT) Temp. Dew Point Humidity Pressure Visibility Wind Dir Wind Speed Gust Speed Precip Events Conditions
12:53 AM 63.0 °F 53.1 °F 70% 30.13 in 10.0 mi NW 9.2 mph - N/A   Clear
1:53 AM 63.0 °F 53.1 °F 70% 30.13 in 10.0 mi NW 11.5 mph - N/A   Clear
2:53 AM 61.0 °F 53.1 °F 75% 30.13 in 10.0 mi NW 12.7 mph - N/A   Clear
3:53 AM 61.0 °F 53.1 °F 75% 30.12 in 10.0 mi NW 13.8 mph - N/A   Clear
4:53 AM 62.1 °F 53.1 °F 72% 30.12 in 10.0 mi NW 12.7 mph - N/A   Clear
5:53 AM 63.0 °F 53.1 °F 70% 30.12 in 10.0 mi NW 12.7 mph 18.4 mph N/A   Clear
6:04 AM 62.6 °F 51.8 °F 68% 30.12 in 10.0 mi NW 10.4 mph - N/A   Clear
6:53 AM 66.2 °F 53.6 °F 64% 30.12 in 10.0 mi NW 13.8 mph - N/A   Clear
7:53 AM 69.8 °F 53.6 °F 56% 30.11 in 10.0 mi WNW 15.0 mph 23.0 mph N/A   Clear
8:53 AM 71.6 °F 53.6 °F 53% 30.11 in 10.0 mi NW 15.0 mph - N/A   Clear
9:53 AM 69.8 °F 53.6 °F 56% 30.11 in 10.0 mi NW 19.6 mph - N/A   Clear
10:53 AM 71.6 °F 55.4 °F 57% 30.11 in 10.0 mi NW 17.3 mph - N/A   Clear
11:53 AM 71.6 °F 55.4 °F 57% 30.09 in 10.0 mi NW 13.8 mph - N/A   Clear
12:53 PM 71.6 °F 55.4 °F 57% 30.08 in 10.0 mi NNW 15.0 mph - N/A   Clear
1:53 PM 78.8 °F 55.4 °F 44% 30.06 in 10.0 mi NNW 15.0 mph - N/A   Clear
2:53 PM 75.2 °F 55.4 °F 50% 30.06 in 10.0 mi NW 12.7 mph 23.0 mph N/A   Clear
3:53 PM 78.8 °F 55.4 °F 44% 30.06 in 10.0 mi NNW 13.8 mph - N/A   Clear
4:53 PM 77.0 °F 55.0 °F 47% 30.04 in 10.0 mi NW 10.4 mph - N/A   Clear
5:53 PM 73.9 °F 55.0 °F 52% 30.03 in 10.0 mi NW 12.7 mph - N/A   Clear
6:53 PM 73.9 °F 55.0 °F 52% 30.03 in 10.0 mi NNW 11.5 mph - N/A   Clear
7:53 PM 73.0 °F 55.0 °F 53% 30.03 in 10.0 mi North 12.7 mph - N/A   Clear
8:53 PM 69.1 °F 55.0 °F 61% 30.02 in 10.0 mi NW 11.5 mph - N/A   Clear
9:53 PM 70.0 °F 54.0 °F 57% 30.04 in 10.0 mi NW 10.4 mph - N/A   Clear
10:53 PM 69.1 °F 54.0 °F 58% 30.04 in 10.0 mi NW 8.1 mph - N/A   Clear
11:53 PM 66.9 °F 54.0 °F 63% 30.04 in 10.0 mi NW 9.2 mph - N/A   Clear